User: anonymous   Login
Location: Unspecified
(0.0000°N, 0.0000°E)
Time: 11:54:54
(UTC+00:00)
Language:

FAST - Orbit

View from above orbital plane
View from above orbital plane
View from above satellite
View from above satellite

Ground track
Ground track

The orbit data is extracted from the following two-line orbital elements,

1 24285U 96049A   18293.54639551  .00001241  00000-0  99601-4 0  9997
2 24285  82.9550 101.4954 1871918   5.5546 356.3397 11.53628163907419
Epoch (UTC): 20 October 2018 13:06:48
Eccentricity: 0.1871918
inclination: 82.9550°
perigee height: 346 km
apogee height: 3444 km
right ascension of ascending node: 101.4954°
argument of perigee: 5.5546°
revolutions per day: 11.53628163
mean anomaly at epoch: 356.3397°
orbit number at epoch: 90741

The dashed part of the orbit path shows where the satellite is in the earth's shadow,  

DLR